Temp
-12 -11 -11 -11 -11 -11 -11 -11 -11 -12 -12 -12 -12 -13 -13 -13 -13 -13 -13 -13 -13 -13 -14 -15 -15 -15 -15 -16 -16 -16 -15 -15 -15 -14 -13 -13 -13 -13 -12 -12 -12 -11 -10 -11 -11 -10 -10
-12 -12 -12 -11 -11 -11 -11 -11 -12 -12 -12 -13 -13 -12 -13 -13 -13 -13 -14 -14 -14 -14 -15 -16 -16 -17 -18 -19 -18 -19 -17 -16 -16 -14 -14 -13 -13 -13 -13 -12 -12 -12 -11 -11 -11 -10 -10
-13 -12 -12 -12 -12 -11 -11 -11 -12 -12 -12 -13 -13 -13 -13 -13 -13 -14 -14 -14 -14 -15 -16 -17 -17 -19 -19 -19 -20 -20 -19 -18 -16 -15 -14 -14 -14 -14 -13 -13 -12 -12 -11 -12 -11 -10 -10
-13 -13 -12 -12 -12 -12 -11 -11 -12 -13 -12 -13 -13 -13 -13 -13 -14 -14 -14 -15 -16 -16 -17 -17 -19 -19 -20 -21 -22 -21 -21 -19 -17 -15 -15 -14 -14 -14 -14 -13 -12 -12 -12 -11 -11 -11 -10
-13 -13 -13 -13 -13 -12 -12 -12 -13 -13 -13 -13 -14 -14 -13 -14 -14 -13 -14 -16 -16 -17 -17 -18 -20 -21 -21 -22 -22 -22 -21 -19 -17 -16 -15 -15 -15 -14 -14 -13 -12 -12 -11 -11 -12 -11 -10
-14 -13 -13 -13 -13 -12 -12 -12 -13 -13 -13 -13 -14 -14 -14 -14 -14 -14 -15 -16 -17 -18 -18 -20 -21 -21 -22 -22 -22 -22 -21 -19 -18 -17 -16 -15 -15 -14 -14 -13 -13 -12 -11 -11 -12 -10 -10
-14 -13 -13 -13 -13 -13 -13 -13 -13 -13 -14 -13 -14 -14 -14 -14 -14 -15 -16 -17 -17 -18 -19 -20 -21 -22 -22 -23 -23 -22 -21 -19 -18 -17 -16 -15 -15 -14 -14 -13 -13 -12 -12 -11 -12 -11 -10
-14 -14 -14 -13 -13 -13 -13 -13 -13 -14 -14 -14 -14 -14 -14 -14 -14 -15 -16 -17 -18 -19 -19 -20 -21 -22 -23 -23 -23 -22 -21 -20 -18 -17 -16 -16 -15 -15 -14 -14 -13 -13 -12 -12 -12 -10 -10
-14 -14 -14 -14 -13 -13 -13 -13 -14 -14 -14 -14 -15 -15 -14 -14 -15 -15 -16 -17 -18 -19 -20 -20 -21 -22 -23 -23 -23 -22 -21 -20 -18 -17 -16 -15 -15 -15 -14 -14 -13 -13 -12 -12 -11 -11 -10
-15 -14 -14 -14 -14 -13 -13 -14 -14 -14 -14 -14 -15 -15 -15 -15 -15 -15 -16 -17 -18 -19 -20 -20 -21 -22 -22 -22 -22 -22 -21 -20 -18 -17 -16 -15 -14 -15 -14 -14 -13 -13 -12 -12 -12 -11 -11
-15 -15 -14 -14 -14 -13 -13 -14 -14 -14 -14 -14 -15 -15 -15 -15 -15 -16 -16 -17 -18 -19 -20 -20 -21 -21 -22 -22 -22 -21 -20 -19 -17 -16 -15 -16 -15 -15 -15 -14 -14 -13 -12 -12 -12 -11 -11
-15 -15 -15 -14 -14 -14 -14 -14 -14 -14 -14 -14 -14 -15 -15 -15 -15 -15 -16 -17 -18 -19 -20 -20 -21 -21 -22 -21 -22 -21 -19 -19 -18 -16 -16 -15 -15 -15 -15 -14 -14 -13 -13 -13 -13 -12 -11
-16 -15 -15 -14 -14 -14 -14 -14 -14 -14 -14 -14 -14 -15 -15 -15 -15 -15 -16 -17 -18 -18 -20 -21 -21 -22 -22 -21 -21 -20 -18 -18 -18 -16 -16 -15 -15 -15 -14 -14 -14 -13 -13 -13 -13 -12 -11
-16 -16 -15 -15 -14 -14 -15 -15 -15 -14 -14 -14 -14 -15 -15 -15 -15 -15 -16 -16 -17 -18 -20 -21 -22 -23 -22 -21 -20 -18 -18 -17 -17 -16 -15 -15 -15 -15 -14 -14 -13 -13 -13 -13 -13 -12 -11
-17 -16 -15 -15 -15 -15 -15 -15 -15 -15 -14 -14 -14 -14 -15 -14 -15 -15 -15 -16 -17 -18 -19 -21 -21 -22 -22 -21 -19 -18 -16 -17 -16 -15 -15 -15 -14 -14 -14 -14 -14 -14 -13 -14 -12 -12 -11
-18 -16 -16 -15 -15 -15 -15 -15 -15 -15 -14 -15 -14 -14 -14 -14 -15 -14 -15 -16 -16 -18 -19 -19 -19 -19 -19 -19 -18 -17 -16 -16 -16 -15 -15 -15 -14 -14 -15 -15 -15 -14 -14 -13 -12 -12 -11
-17 -17 -16 -16 -16 -16 -15 -15 -15 -15 -14 -15 -14 -14 -14 -14 -14 -14 -15 -15 -16 -17 -18 -17 -18 -17 -18 -17 -17 -16 -15 -15 -15 -15 -15 -15 -15 -14 -14 -14 -13 -13 -13 -13 -13 -12 -11
-18 -17 -16 -16 -16 -16 -16 -16 -15 -15 -15 -15 -15 -15 -14 -14 -14 -14 -15 -15 -15 -17 -17 -17 -17 -18 -18 -17 -16 -16 -16 -16 -15 -15 -14 -15 -15 -15 -14 -14 -14 -13 -14 -13 -13 -12 -12
-18 -18 -17 -17 -16 -16 -16 -16 -16 -15 -15 -15 -15 -15 -14 -14 -14 -15 -14 -14 -15 -16 -17 -17 -17 -17 -18 -18 -16 -15 -15 -16 -16 -15 -14 -15 -15 -14 -14 -14 -13 -13 -13 -13 -13 -12 -11
-19 -18 -17 -17 -17 -16 -16 -16 -16 -15 -15 -15 -15 -15 -14 -14 -14 -14 -14 -14 -14 -15 -16 -16 -16 -16 -16 -17 -17 -17 -16 -16 -15 -15 -15 -15 -15 -14 -13 -13 -13 -12 -12 -12 -13 -12 -12
-18 -18 -18 -17 -17 -16 -16 -16 -16 -16 -15 -15 -15 -15 -15 -15 -14 -14 -14 -14 -14 -15 -15 -15 -15 -16 -16 -16 -16 -15 -15 -15 -15 -15 -15 -14 -14 -14 -14 -13 -13 -13 -14 -14 -14 -14 -13
-18 -18 -18 -18 -17 -17 -17 -16 -16 -16 -15 -15 -15 -15 -15 -15 -14 -14 -14 -14 -14 -14 -14 -14 -15 -15 -16 -16 -15 -15 -15 -15 -15 -15 -14 -14 -14 -14 -14 -14 -14 -14 -14 -13 -13 -13 -13
-18 -18 -18 -18 -17 -17 -17 -16 -16 -16 -16 -16 -15 -15 -15 -16 -14 -14 -14 -14 -14 -14 -14 -15 -15 -15 -15 -16 -16 -16 -16 -16 -16 -16 -15 -15 -15 -16 -16 -16 -15 -14 -14 -14 -14 -14 -14
-19 -18 -19 -18 -18 -17 -17 -17 -16 -16 -16 -16 -16 -16 -16 -16 -15 -15 -14 -14 -14 -14 -14 -15 -15 -16 -16 -16 -16 -16 -16 -16 -16 -16 -16 -16 -15 -15 -16 -15 -15 -15 -15 -14 -14 -14 -13
-19 -19 -19 -18 -18 -17 -17 -17 -17 -16 -16 -16 -16 -16 -16 -16 -15 -15 -15 -14 -14 -14 -15 -15 -15 -15 -16 -16 -16 -16 -16 -16 -16 -16 -16 -15 -15 -15 -15 -15 -14 -15 -15 -14 -14 -14 -14
-19 -18 -19 -19 -18 -18 -17 -17 -17 -17 -17 -16 -16 -16 -16 -16 -16 -15 -15 -15 -14 -14 -14 -15 -15 -15 -15 -15 -15 -15 -16 -16 -15 -15 -15 -15 -15 -15 -15 -15 -15 -15 -15 -15 -14 -14 -14
-19 -19 -19 -19 -19 -18 -17 -17 -17 -17 -17 -16 -16 -16 -16 -16 -16 -15 -16 -15 -14 -14 -15 -15 -15 -15 -15 -15 -15 -15 -15 -15 -15 -15 -15 -15 -15 -15 -15 -15 -15 -16 -16 -15 -15 -14 -14
-19 -19 -18 -19 -19 -18 -18 -17 -17 -17 -17 -17 -16 -16 -16 -16 -16 -16 -16 -15 -15 -15 -15 -15 -15 -15 -15 -15 -15 -15 -15 -15 -15 -15 -15 -15 -16 -16 -16 -15 -15 -15 -15 -15 -15 -14 -14
-19 -19 -19 -19 -19 -18 -18 -18 -17 -17 -17 -17 -17 -17 -16 -17 -16 -16 -16 -16 -15 -16 -16 -15 -15 -15 -15 -15 -15 -15 -15 -15 -15 -15 -16 -16 -16 -16 -15 -15 -15 -15 -15 -15 -15 -15 -14
Height
5751 5749 5747 5744 5742 5738 5733 5730 5726 5721 5714 5709 5707 5703 5700 5697 5694 5692 5689 5684 5680 5675 5671 5667 5665 5664 5664 5665 5681 5679 5688 5699 5706 5717 5733 5744 5749 5758 5765 5777 5782 5789 5795 5797 5797 5803 5807
5744 5742 5741 5738 5736 5732 5726 5724 5719 5713 5708 5702 5699 5695 5693 5688 5684 5681 5677 5672 5666 5661 5656 5652 5649 5646 5646 5651 5652 5649 5658 5676 5689 5704 5721 5733 5741 5752 5761 5768 5773 5784 5787 5789 5793 5798 5802
5737 5736 5734 5731 5729 5725 5720 5717 5712 5706 5700 5695 5691 5687 5684 5680 5675 5671 5665 5659 5654 5647 5643 5639 5635 5632 5632 5635 5632 5635 5642 5655 5675 5691 5709 5724 5734 5742 5753 5761 5770 5774 5778 5782 5790 5793 5797
5730 5728 5727 5725 5722 5719 5714 5711 5705 5699 5693 5688 5684 5679 5675 5671 5666 5659 5653 5647 5640 5635 5631 5629 5623 5619 5617 5618 5619 5626 5631 5643 5661 5678 5696 5709 5722 5731 5744 5751 5761 5766 5771 5779 5785 5787 5791
5723 5721 5720 5717 5714 5712 5708 5704 5699 5693 5686 5681 5677 5673 5667 5662 5656 5648 5641 5635 5629 5624 5620 5615 5612 5608 5606 5608 5611 5615 5621 5633 5650 5668 5685 5698 5711 5723 5732 5743 5752 5756 5767 5776 5776 5782 5787
5714 5713 5712 5710 5707 5704 5701 5697 5693 5686 5679 5674 5669 5665 5660 5654 5646 5638 5630 5622 5619 5614 5609 5606 5603 5599 5597 5598 5601 5608 5614 5625 5641 5658 5674 5688 5702 5714 5722 5734 5740 5751 5766 5771 5774 5776 5780
5703 5704 5703 5702 5700 5697 5694 5691 5686 5680 5673 5667 5662 5658 5652 5646 5639 5629 5621 5613 5611 5606 5601 5597 5595 5591 5588 5589 5594 5602 5608 5619 5634 5650 5668 5684 5696 5703 5718 5732 5743 5755 5760 5765 5766 5769 5777
5692 5694 5694 5693 5692 5690 5687 5684 5680 5674 5668 5661 5656 5651 5645 5638 5632 5623 5615 5608 5601 5598 5592 5589 5587 5583 5583 5585 5591 5596 5602 5616 5630 5649 5664 5677 5689 5703 5718 5729 5739 5747 5754 5759 5762 5767 5772
5682 5684 5684 5684 5683 5682 5679 5677 5674 5668 5662 5655 5650 5645 5640 5632 5626 5617 5609 5602 5594 5590 5586 5582 5581 5578 5578 5581 5587 5592 5602 5615 5629 5645 5661 5676 5688 5702 5711 5722 5731 5742 5750 5756 5759 5762 5767
5672 5674 5674 5674 5675 5674 5672 5670 5667 5663 5656 5649 5644 5640 5634 5628 5622 5612 5604 5595 5588 5583 5578 5578 5576 5574 5574 5579 5583 5590 5601 5615 5626 5645 5660 5672 5686 5698 5707 5718 5729 5738 5747 5749 5753 5757 5763
5661 5663 5665 5665 5666 5666 5664 5663 5661 5657 5651 5644 5638 5634 5628 5622 5617 5608 5601 5590 5583 5578 5572 5570 5570 5569 5572 5578 5584 5591 5600 5611 5628 5644 5654 5672 5684 5694 5704 5719 5728 5736 5739 5743 5746 5753 5759
5648 5652 5654 5656 5657 5657 5656 5655 5655 5651 5646 5639 5633 5629 5623 5618 5612 5604 5595 5587 5580 5575 5566 5565 5565 5566 5570 5575 5581 5588 5601 5611 5627 5639 5655 5669 5683 5691 5706 5714 5722 5728 5732 5739 5745 5748 5755
5636 5640 5643 5646 5648 5649 5649 5647 5647 5644 5641 5634 5629 5625 5620 5615 5609 5601 5593 5586 5580 5572 5566 5561 5558 5560 5567 5574 5581 5589 5601 5613 5625 5633 5646 5665 5679 5690 5702 5710 5717 5721 5727 5734 5740 5743 5752
5623 5629 5633 5636 5638 5640 5641 5640 5640 5638 5635 5630 5625 5621 5616 5612 5606 5598 5591 5585 5578 5571 5561 5555 5553 5557 5565 5573 5581 5592 5602 5616 5626 5639 5652 5662 5673 5686 5696 5701 5712 5719 5725 5731 5735 5740 5745
5611 5617 5622 5625 5628 5631 5632 5633 5633 5632 5629 5626 5620 5617 5613 5609 5603 5597 5591 5584 5577 5571 5564 5556 5554 5558 5565 5574 5585 5595 5608 5621 5629 5640 5654 5663 5674 5686 5694 5702 5710 5715 5719 5728 5732 5736 5740
5597 5604 5611 5615 5619 5622 5624 5626 5626 5625 5624 5621 5616 5613 5610 5607 5602 5597 5591 5586 5581 5577 5571 5564 5566 5566 5570 5578 5588 5599 5610 5620 5630 5643 5653 5666 5675 5684 5691 5697 5701 5709 5719 5721 5726 5733 5737
5585 5592 5600 5605 5610 5613 5616 5619 5619 5619 5618 5616 5612 5610 5607 5605 5602 5597 5593 5589 5585 5582 5578 5574 5575 5578 5580 5586 5592 5603 5615 5624 5633 5642 5653 5663 5674 5683 5689 5694 5704 5710 5712 5718 5724 5728 5733
5571 5581 5588 5595 5601 5604 5608 5612 5612 5612 5612 5611 5609 5607 5604 5603 5601 5597 5595 5591 5589 5588 5584 5583 5585 5589 5593 5596 5601 5608 5617 5627 5636 5646 5655 5663 5671 5678 5688 5695 5701 5704 5710 5714 5717 5724 5727
5560 5570 5577 5584 5592 5596 5600 5605 5605 5606 5607 5607 5605 5603 5602 5601 5600 5597 5596 5594 5592 5592 5591 5590 5595 5597 5601 5602 5608 5616 5623 5632 5640 5647 5655 5663 5668 5675 5680 5686 5691 5697 5704 5709 5716 5720 5722
5547 5558 5567 5574 5582 5587 5592 5597 5598 5600 5601 5602 5602 5600 5599 5599 5599 5597 5596 5594 5593 5594 5595 5597 5598 5600 5603 5608 5613 5620 5626 5635 5642 5648 5653 5659 5666 5674 5682 5692 5697 5700 5704 5708 5710 5711 5716
5535 5546 5556 5563 5571 5578 5584 5590 5591 5594 5596 5598 5597 5597 5597 5597 5597 5597 5595 5594 5592 5592 5594 5596 5599 5602 5606 5611 5616 5624 5629 5635 5642 5647 5651 5657 5663 5670 5675 5682 5686 5690 5695 5700 5703 5707 5708
5523 5535 5546 5555 5563 5569 5575 5581 5585 5588 5590 5592 5592 5593 5593 5594 5596 5597 5595 5593 5592 5591 5593 5596 5599 5601 5606 5613 5624 5630 5632 5638 5643 5646 5650 5655 5660 5665 5669 5675 5679 5684 5688 5692 5696 5699 5703
5514 5525 5536 5546 5554 5560 5568 5574 5578 5581 5585 5586 5587 5588 5589 5591 5593 5595 5595 5593 5591 5590 5593 5594 5598 5601 5604 5613 5620 5625 5629 5636 5642 5646 5650 5654 5658 5662 5666 5670 5674 5679 5684 5688 5693 5696 5699
5505 5516 5528 5538 5545 5553 5560 5567 5571 5575 5579 5581 5582 5583 5586 5587 5591 5592 5594 5593 5591 5592 5593 5596 5598 5602 5607 5613 5618 5622 5628 5634 5638 5642 5647 5651 5656 5659 5663 5666 5670 5679 5682 5686 5689 5692 5694
5496 5508 5520 5529 5537 5546 5553 5559 5565 5569 5573 5575 5577 5579 5582 5584 5588 5591 5592 5593 5593 5594 5595 5597 5599 5603 5606 5611 5616 5620 5625 5630 5634 5640 5644 5649 5653 5657 5660 5665 5671 5675 5679 5682 5684 5687 5688
5487 5498 5509 5521 5530 5538 5547 5553 5557 5563 5567 5570 5572 5574 5578 5581 5584 5588 5590 5593 5594 5595 5597 5599 5601 5603 5608 5611 5614 5618 5622 5630 5633 5637 5642 5647 5650 5655 5658 5662 5666 5672 5675 5676 5678 5681 5684
5479 5489 5501 5512 5521 5531 5540 5546 5551 5557 5561 5564 5567 5570 5574 5577 5580 5585 5588 5591 5592 5595 5598 5600 5603 5605 5609 5612 5614 5619 5623 5627 5631 5636 5640 5643 5647 5650 5652 5656 5661 5666 5669 5671 5673 5679 5675
5473 5483 5494 5504 5514 5524 5532 5539 5545 5551 5555 5558 5562 5565 5570 5574 5576 5581 5586 5589 5592 5594 5597 5601 5604 5606 5609 5612 5615 5618 5622 5625 5629 5633 5636 5641 5644 5647 5650 5652 5656 5661 5663 5666 5666 5667 5667
5466 5476 5486 5497 5507 5517 5526 5533 5539 5545 5550 5553 5557 5560 5565 5571 5574 5577 5582 5586 5590 5593 5597 5599 5602 5606 5609 5612 5615 5618 5621 5625 5628 5631 5635 5639 5641 5645 5647 5651 5652 5655 5657 5658 5659 5660 5661
Wind_Speed
27 26 25 26 27 28 31 33 32 32 33 29 31 31 29 33 31 33 35 36 38 42 44 45 48 52 60 64 56 63 64 67 68 69 64 60 60 57 52 41 38 35 34 36 33 29 29
27 26 27 27 28 29 30 35 33 32 33 28 32 29 29 31 31 32 34 38 41 42 43 43 44 48 51 51 52 59 62 65 71 69 66 62 60 56 50 45 42 34 38 37 35 33 32
28 27 27 29 29 30 30 35 33 31 33 31 33 31 28 28 29 32 39 40 43 40 39 38 42 45 46 50 52 54 57 63 72 71 67 63 58 57 52 46 40 40 40 38 32 36 33
31 29 28 29 30 30 32 35 35 32 31 31 32 30 28 28 30 37 37 38 38 35 38 40 38 43 42 38 41 43 50 60 67 72 68 65 60 56 53 50 44 42 39 35 33 35 36
34 32 30 30 31 31 32 36 36 33 33 30 30 28 27 31 33 37 36 40 33 33 37 40 33 35 39 29 35 42 40 53 63 69 67 66 61 56 55 51 46 44 37 33 37 36 36
37 33 32 31 31 32 34 35 37 33 33 30 28 28 28 29 37 39 39 39 28 31 34 32 30 34 26 28 34 40 37 52 59 65 68 66 60 58 55 53 52 46 32 33 33 36 36
37 36 33 32 32 32 34 35 36 33 32 31 26 27 29 34 43 39 37 37 30 29 28 31 32 30 26 28 34 38 39 52 58 64 67 66 61 61 53 52 43 35 35 34 34 38 34
38 37 34 33 32 32 34 36 36 33 31 32 26 25 30 33 35 38 32 33 29 27 28 29 28 22 23 28 33 40 42 52 58 62 66 64 62 54 47 46 42 38 37 35 35 34 32
40 38 35 34 33 32 34 35 36 31 29 31 26 26 28 28 34 37 34 31 29 28 26 28 25 18 23 31 31 38 43 51 57 62 64 64 57 50 46 47 44 39 36 32 34 35 32
40 40 37 34 34 32 34 35 35 31 28 31 25 26 27 27 34 37 40 29 28 25 30 28 22 15 21 31 27 36 43 51 56 62 61 61 47 52 45 44 41 37 31 33 34 35 30
42 41 39 36 35 33 34 35 33 30 26 29 25 25 28 28 32 33 38 32 25 25 31 29 25 19 16 28 30 38 43 51 55 60 59 55 50 48 47 37 37 33 33 35 33 31 28
44 43 41 38 36 34 33 34 33 28 24 26 25 23 26 30 30 33 36 31 28 28 33 24 22 18 20 29 29 36 45 50 52 59 52 47 46 46 41 38 36 35 35 33 28 29 27
45 43 42 39 38 37 33 33 33 26 24 24 23 20 23 29 32 31 34 28 25 23 24 19 16 19 28 33 33 40 46 52 43 58 53 45 50 43 40 39 38 38 35 31 27 27 22
47 44 41 41 40 38 34 32 32 26 26 23 22 21 21 29 29 24 31 18 16 22 21 10 8 26 35 37 36 44 45 52 54 55 51 54 48 47 46 44 44 40 34 30 27 24 24
49 44 44 43 40 38 34 31 31 26 27 22 22 22 20 26 27 25 26 13 15 24 24 10 20 33 32 38 39 47 48 52 55 54 49 52 49 49 45 36 38 37 36 31 26 23 23
51 46 45 44 41 39 35 30 29 26 26 23 23 20 17 22 17 20 29 16 10 15 16 15 22 34 37 38 42 49 51 55 54 50 51 48 47 49 47 41 37 41 32 33 30 25 19
48 46 47 45 42 38 34 29 28 26 24 23 22 18 15 18 15 18 25 11 6 12 11 14 21 27 36 38 49 51 53 54 51 45 47 46 44 44 43 42 35 32 34 31 28 27 22
50 46 48 44 41 38 34 29 26 26 23 24 22 16 12 14 10 16 19 13 2 9 13 22 30 18 28 35 43 47 49 50 48 42 40 40 43 44 40 37 34 34 32 32 30 28 25
52 51 52 44 41 38 34 28 26 25 22 24 21 15 9 9 7 8 13 18 6 6 11 25 23 12 23 29 39 40 44 45 41 37 35 35 37 41 43 44 40 37 35 35 29 26 27
56 50 48 43 40 37 34 29 26 25 22 24 18 15 9 5 5 4 7 13 6 11 14 19 21 19 20 30 31 37 39 38 31 27 30 33 35 33 33 32 31 31 29 28 29 30 26
58 62 56 45 40 36 34 30 26 24 22 21 18 16 11 4 3 1 3 11 6 11 15 14 23 23 25 30 31 29 29 33 28 26 27 31 34 35 35 33 35 36 36 34 32 26 27
61 58 56 48 42 37 34 31 25 23 21 18 20 16 16 11 8 6 6 9 5 6 9 13 16 19 32 33 25 19 21 22 21 23 23 25 27 31 34 36 34 33 34 35 33 31 27
59 59 55 48 39 35 33 30 24 22 21 17 20 16 18 15 11 8 4 3 7 11 10 13 23 19 23 37 29 23 23 20 22 17 19 19 19 22 28 30 33 36 31 32 30 27 26
57 52 43 45 44 37 32 29 25 22 22 17 19 16 18 18 15 10 9 3 11 10 13 15 19 22 21 32 33 28 28 25 27 23 24 21 19 20 29 29 31 27 26 27 27 27 26
49 56 52 44 40 37 32 28 25 22 22 18 20 17 19 19 19 13 9 7 14 16 14 15 15 19 23 24 30 31 30 28 28 25 25 28 27 25 30 29 25 24 22 23 24 25 26
43 52 55 55 44 37 32 30 24 23 23 20 21 19 22 20 20 18 13 10 15 17 16 19 17 15 18 15 18 21 27 27 29 27 30 31 24 25 26 30 28 21 19 19 22 24 24
40 50 52 49 43 37 33 28 25 25 23 21 22 21 26 23 22 22 17 15 19 19 17 17 16 16 15 12 13 21 23 20 21 21 24 26 23 23 30 28 25 24 22 24 23 23 29
38 46 51 45 40 38 31 29 27 26 24 23 23 23 30 26 24 24 21 20 21 20 20 20 19 18 18 14 17 17 14 11 13 14 19 21 21 19 21 24 25 24 28 29 30 27 25
42 46 52 47 42 37 32 30 28 27 26 25 25 24 32 30 26 26 25 23 25 23 21 21 22 20 17 16 15 18 15 14 16 15 16 19 21 20 27 26 21 18 21 21 23 27 26
Wind_Direction
285 292 302 309 312 313 318 317 316 315 319 306 307 300 295 292 288 291 290 292 294 296 285 272 266 264 261 259 255 248 239 231 230 225 220 218 221 220 221 220 223 222 217 226 230 230 234
281 289 297 304 309 311 317 314 315 314 317 303 305 303 304 298 298 299 305 296 301 297 282 274 274 273 264 253 248 247 242 229 226 220 216 214 218 220 219 218 220 219 219 224 226 229 233
279 286 294 300 305 310 315 312 313 313 318 307 305 308 303 303 297 309 311 300 301 287 282 281 279 269 267 257 253 240 237 223 217 215 211 210 215 218 217 216 215 216 220 223 222 228 231
276 281 288 295 303 308 312 312 313 311 319 308 307 305 301 307 310 317 310 298 301 292 287 283 274 273 275 261 244 230 229 214 207 207 205 207 210 213 214 215 213 218 220 220 223 226 229
273 278 282 290 299 305 310 312 313 311 319 312 307 303 301 310 319 320 317 306 303 293 288 283 274 276 278 247 238 228 221 208 202 203 201 204 208 211 210 209 210 216 215 216 223 224 227
266 272 279 284 294 301 307 312 313 312 318 316 306 304 304 313 322 325 320 309 299 293 287 283 273 284 280 233 231 223 219 203 199 199 199 202 205 208 210 206 209 213 211 217 222 224 224
256 265 272 279 288 296 303 311 312 313 317 318 308 313 311 311 318 327 321 302 298 290 290 280 279 287 261 225 219 217 211 200 198 198 196 199 203 206 208 208 209 210 212 216 219 225 222
250 258 266 273 281 290 298 309 311 315 316 317 310 317 319 324 324 333 322 303 290 289 286 279 276 275 248 218 220 216 205 195 195 194 194 199 203 204 206 203 205 211 213 221 222 225 226
248 253 260 269 276 284 291 305 309 314 312 316 308 320 331 325 328 334 322 306 288 287 289 279 274 265 237 216 209 214 198 190 192 192 193 198 201 201 204 202 202 208 215 221 225 226 227
247 251 255 263 271 279 286 300 308 311 310 315 307 317 328 325 327 335 325 308 288 290 272 275 267 249 230 209 206 203 188 186 188 188 191 198 196 201 199 198 200 207 213 221 224 226 226
246 249 254 258 266 274 283 293 304 308 308 313 305 315 326 328 325 335 328 313 299 284 275 272 259 255 217 201 197 189 182 184 185 187 189 193 196 202 200 199 200 199 211 220 221 226 222
241 247 252 257 264 269 278 288 299 306 307 309 301 316 331 330 332 339 337 317 309 288 283 278 272 257 205 187 185 183 179 179 183 186 185 185 191 199 196 197 196 197 210 216 218 223 219
239 241 247 253 262 267 274 284 294 303 302 308 299 310 332 333 331 342 335 329 320 315 319 290 272 192 185 183 180 180 177 177 187 186 180 180 199 198 195 197 198 200 207 210 214 221 211
236 238 242 250 257 263 270 279 289 299 299 310 298 299 324 331 332 341 338 340 2 346 341 287 194 175 181 172 174 175 174 182 182 184 188 185 187 193 198 193 200 205 211 214 213 216 213
234 234 238 246 252 259 266 274 284 294 296 307 300 296 321 331 332 356 337 346 357 7 346 322 172 168 171 165 171 172 176 178 184 185 192 195 200 194 195 196 192 203 212 215 222 216 220
228 230 236 244 249 256 262 269 279 289 294 299 304 293 323 334 338 350 343 340 18 14 356 91 154 158 159 164 167 173 177 180 185 187 191 195 202 201 205 212 207 206 207 218 217 220 226
226 226 234 241 247 253 259 265 275 284 292 292 304 289 317 332 342 14 349 338 13 46 50 98 140 153 155 164 168 175 178 182 186 188 193 195 198 204 207 208 209 213 215 219 219 230 231
221 225 231 238 243 250 255 260 268 277 286 286 306 285 309 325 340 17 13 352 62 78 79 125 129 130 159 164 174 174 181 185 188 190 196 198 199 204 208 210 211 217 216 215 223 232 236
225 224 231 235 239 245 252 256 262 271 279 283 305 276 302 321 309 12 5 349 285 119 117 127 157 160 175 158 178 178 177 188 190 198 199 200 201 208 211 211 210 213 217 221 225 236 236
220 219 227 232 237 241 248 252 257 265 273 276 292 273 281 281 310 343 25 339 292 162 146 171 175 186 197 186 174 176 182 184 188 197 199 205 206 210 214 214 217 223 229 226 232 236 239
222 224 226 229 233 238 246 248 249 258 268 268 280 274 249 211 243 142 4 322 298 217 218 197 196 191 190 183 172 166 176 192 191 191 199 205 205 209 212 211 216 218 225 231 236 234 236
223 223 222 222 226 231 239 244 242 252 260 260 269 274 238 209 229 223 350 343 201 181 222 207 189 198 194 183 171 181 179 187 204 199 199 202 205 209 214 216 211 215 215 218 218 226 234
218 222 220 219 222 229 234 237 238 246 252 256 261 268 228 209 209 219 242 52 150 153 174 181 184 168 175 171 173 177 183 185 187 195 199 205 202 214 214 218 221 216 212 217 227 236 245
211 212 209 217 222 226 229 231 232 238 245 246 253 251 222 205 201 222 218 120 137 128 154 162 176 184 178 183 195 200 194 191 200 194 207 199 207 211 214 214 216 210 220 230 236 241 248
214 211 214 213 218 223 226 225 225 231 239 235 241 235 218 203 199 214 211 175 129 132 117 145 154 160 166 179 197 206 207 197 190 196 202 199 199 222 221 222 215 217 228 238 243 243 248
213 211 211 215 216 219 221 220 216 226 233 225 232 228 212 205 196 200 202 190 161 148 141 137 126 129 163 191 179 174 195 198 203 203 205 213 221 211 220 225 226 220 227 239 249 252 257
208 205 203 206 209 216 215 213 212 222 227 220 225 220 206 203 193 193 197 190 177 164 155 155 155 158 164 157 176 192 199 199 207 213 212 220 222 225 222 223 228 229 226 239 261 261 256
208 206 209 203 204 212 207 207 210 218 222 216 221 216 205 203 192 193 196 192 183 174 168 163 160 158 158 162 167 162 174 165 184 207 218 213 217 219 228 234 240 236 243 254 256 259 262
211 208 201 196 202 206 207 205 208 216 219 214 217 214 205 206 201 198 198 197 188 177 175 174 173 167 168 167 174 190 189 173 164 182 199 227 224 231 229 239 245 237 236 240 245 252 257